| time (UTC) | temp F | wind direction | speed knots | gust knots | rain 1hr in | rain 24hr in | rain mn in | humidity % | barometer mb |
| 20260507101531 | 40 | 39 | 0.0 | 0.0 | 0.00 | 0.74 | 0.71 | 95 | 1008.1 |
| 20260507100031 | 39 | 39 | 0.0 | 0.0 | 0.00 | 0.74 | 0.71 | 95 | 1008.0 |
| 20260507094530 | 39 | 39 | 0.0 | 0.9 | 0.00 | 0.74 | 0.71 | 94 | 1008.2 |
| 20260507093058 | 39 | 39 | 0.0 | 0.9 | 0.00 | 0.74 | 0.71 | 94 | 1008.3 |
| 20260507091558 | 39 | 39 | 0.0 | 0.0 | 0.00 | 0.74 | 0.71 | 94 | 1008.3 |
| 20260507090058 | 40 | 39 | 0.0 | 0.0 | 0.00 | 0.74 | 0.71 | 94 | 1008.6 |
| 20260507084552 | 40 | 39 | 0.0 | 0.9 | 0.00 | 0.74 | 0.71 | 94 | 1008.5 |
| 20260507083051 | 41 | 39 | 0.0 | 0.0 | 0.00 | 0.74 | 0.71 | 94 | 1008.4 |
| 20260507081548 | 41 | 39 | 0.0 | 0.9 | 0.00 | 0.74 | 0.71 | 94 | 1008.4 |
| 20260507080044 | 41 | 39 | 0.0 | 0.0 | 0.00 | 0.74 | 0.71 | 94 | 1008.4 |
| 20260507074552 | 42 | 39 | 0.0 | 0.0 | 0.00 | 0.74 | 0.71 | 94 | 1008.3 |
| 20260507073045 | 42 | 39 | 0.0 | 0.9 | 0.00 | 0.74 | 0.71 | 94 | 1008.4 |
| 20260507071540 | 43 | 39 | 0.0 | 0.0 | 0.00 | 0.74 | 0.71 | 94 | 1008.2 |
| 20260507070041 | 43 | 39 | 0.0 | 0.0 | 0.00 | 0.74 | 0.71 | 94 | 1008.0 |
| 20260507064536 | 43 | 39 | 0.0 | 0.9 | 0.00 | 0.74 | 0.71 | 94 | 1008.0 |
| 20260507063051 | 43 | 39 | 0.0 | 0.0 | 0.00 | 0.74 | 0.71 | 94 | 1007.5 |
| 20260507061536 | 43 | 39 | 0.0 | 0.0 | 0.00 | 0.74 | 0.71 | 94 | 1008.1 |
| 20260507060042 | 43 | 39 | 0.0 | 0.0 | 0.00 | 0.74 | 0.71 | 94 | 1008.0 |
| 20260507054531 | 43 | 39 | 0.0 | 0.0 | 0.00 | 0.74 | 0.71 | 94 | 1008.3 |
| 20260507053031 | 43 | 39 | 0.0 | 0.9 | 0.00 | 0.74 | 0.71 | 94 | 1008.6 |
| 20260507051529 | 43 | 39 | 0.0 | 0.0 | 0.00 | 0.74 | 0.71 | 93 | 1008.6 |
| 20260507050033 | 44 | 39 | 0.0 | 0.0 | 0.00 | 0.74 | 0.71 | 93 | 1008.1 |
| 20260507044524 | 44 | 39 | 0.0 | 0.9 | 0.00 | 0.74 | 0.71 | 93 | 1008.2 |
| 20260507043022 | 45 | 39 | 0.0 | 0.9 | 0.00 | 0.74 | 0.71 | 93 | 1008.0 |
| 20260507041521 | 45 | 39 | 0.0 | 2.6 | 0.00 | 0.74 | 0.71 | 93 | 1007.8 |
| 20260507040049 | 45 | 39 | 0.0 | 0.9 | 0.00 | 0.74 | 0.71 | 93 | 1008.0 |
| 20260507034550 | 45 | 39 | 0.0 | 2.6 | 0.00 | 0.74 | 0.71 | 93 | 1008.2 |
| 20260507033019 | 45 | 39 | 0.0 | 1.7 | 0.00 | 0.74 | 0.71 | 92 | 1008.1 |
| 20260507031517 | 45 | 339 | 0.0 | 2.6 | 0.01 | 0.74 | 0.71 | 91 | 1008.3 |
| 20260507030010 | 46 | 41 | 0.0 | 4.3 | 0.02 | 0.74 | 0.71 | 92 | 1008.3 |
| 20260507024504 | 46 | 32 | 0.9 | 2.6 | 0.02 | 0.74 | 0.71 | 91 | 1008.2 |
| 20260507023001 | 46 | 349 | 0.9 | 2.6 | 0.01 | 0.73 | 0.70 | 92 | 1008.4 |
| 20260507021602 | 47 | 328 | 0.9 | 2.6 | 0.01 | 0.73 | 0.70 | 92 | 1008.4 |
| 20260507014602 | 47 | 38 | 0.0 | 1.7 | 0.00 | 0.72 | 0.69 | 91 | 1008.2 |
| 20260507013116 | 47 | 19 | 0.9 | 2.6 | 0.00 | 0.72 | 0.69 | 91 | 1008.1 |
| 20260507011553 | 48 | 26 | 0.0 | 5.2 | 0.00 | 0.72 | 0.69 | 92 | 1007.9 |
| 20260507004549 | 49 | 14 | 0.0 | 1.7 | 0.00 | 0.72 | 0.69 | 92 | 1007.2 |
| 20260507003044 | 50 | 14 | 0.0 | 2.6 | 0.00 | 0.72 | 0.69 | 91 | 1006.8 |
| 20260507001545 | 50 | 20 | 0.9 | 4.3 | 0.00 | 0.72 | 0.69 | 91 | 1006.6 |
| 20260506234528 | 51 | 27 | 0.0 | 1.7 | 0.00 | 0.72 | 0.69 | 93 | 1005.7 |
| 20260506233018 | 52 | 27 | 0.0 | 0.9 | 0.05 | 0.72 | 0.69 | 92 | 1005.3 |
| 20260506231515 | 52 | 27 | 0.0 | 4.3 | 0.05 | 0.72 | 0.69 | 90 | 1005.1 |
| 20260506230011 | 54 | 34 | 1.7 | 7.0 | 0.05 | 0.72 | 0.69 | 88 | 1004.9 |
| 20260506224508 | 58 | 47 | 2.6 | 6.1 | 0.05 | 0.72 | 0.69 | 90 | 1004.4 |
| 20260506223003 | 60 | 269 | 0.0 | 0.9 | 0.01 | 0.67 | 0.64 | 94 | 1004.0 |
| 20260506221501 | 60 | 269 | 0.0 | 0.0 | 0.10 | 0.67 | 0.64 | 94 | 1003.9 |
| 20260506220104 | 60 | 269 | 0.0 | 1.7 | 0.17 | 0.67 | 0.64 | 94 | 1003.9 |
| 20260506220007 | 60 | 269 | 0.0 | 1.7 | 0.17 | 0.67 | 0.64 | 94 | 1003.9 |
| 20260506214602 | 60 | 269 | 0.0 | 1.7 | 0.17 | 0.67 | 0.64 | 94 | 1003.9 |
| 20260506213100 | 60 | 269 | 0.0 | 1.7 | 0.16 | 0.66 | 0.63 | 94 | 1003.9 |
| 20260506211609 | 60 | 269 | 0.0 | 2.6 | 0.08 | 0.56 | 0.54 | 93 | 1003.8 |
| 20260506210056 | 61 | 69 | 0.9 | 3.5 | 0.02 | 0.50 | 0.47 | 94 | 1003.6 |
| 20260506204555 | 61 | 273 | 0.0 | 1.7 | 0.03 | 0.50 | 0.47 | 94 | 1003.7 |
| 20260506203053 | 60 | 113 | 0.9 | 1.7 | 0.04 | 0.50 | 0.47 | 94 | 1003.8 |
| 20260506201549 | 60 | 119 | 0.0 | 1.7 | 0.10 | 0.49 | 0.46 | 94 | 1003.9 |
| 20260506200049 | 60 | 17 | 0.0 | 2.6 | 0.21 | 0.48 | 0.45 | 94 | 1004.0 |
| 20260506194549 | 60 | 15 | 0.0 | 1.7 | 0.22 | 0.47 | 0.44 | 94 | 1004.2 |
| 20260506193044 | 60 | 15 | 0.0 | 1.7 | 0.22 | 0.45 | 0.42 | 94 | 1004.4 |
| 20260506191540 | 60 | 15 | 0.9 | 1.7 | 0.18 | 0.39 | 0.36 | 93 | 1004.5 |
| 20260506190038 | 60 | 15 | 0.9 | 1.7 | 0.08 | 0.27 | 0.24 | 93 | 1004.6 |
| 20260506184535 | 60 | 28 | 0.0 | 1.7 | 0.07 | 0.25 | 0.22 | 94 | 1004.7 |
| 20260506183036 | 60 | 28 | 0.9 | 2.6 | 0.07 | 0.23 | 0.20 | 93 | 1004.9 |
| 20260506181530 | 60 | 22 | 0.0 | 1.7 | 0.08 | 0.21 | 0.18 | 93 | 1005.0 |
| 20260506180028 | 59 | 22 | 0.0 | 2.6 | 0.08 | 0.19 | 0.16 | 93 | 1005.1 |
| 20260506174525 | 59 | 139 | 0.9 | 1.7 | 0.09 | 0.18 | 0.15 | 92 | 1005.5 |
| 20260506173024 | 59 | 100 | 0.9 | 2.6 | 0.10 | 0.16 | 0.13 | 92 | 1005.7 |
| 20260506171520 | 59 | 224 | 0.9 | 2.6 | 0.08 | 0.13 | 0.10 | 92 | 1006.0 |
| 20260506170018 | 59 | 135 | 0.0 | 2.6 | 0.07 | 0.11 | 0.08 | 92 | 1006.0 |
| 20260506164517 | 60 | 333 | 0.9 | 1.7 | 0.06 | 0.09 | 0.06 | 91 | 1005.9 |
| 20260506163014 | 60 | 347 | 0.9 | 1.7 | 0.04 | 0.06 | 0.03 | 91 | 1006.0 |
| 20260506161510 | 60 | 347 | 0.0 | 0.9 | 0.04 | 0.05 | 0.02 | 90 | 1006.3 |
| 20260506160014 | 60 | 347 | 0.0 | 0.9 | 0.03 | 0.03 | 0.00 | 89 | 1006.4 |
| 20260506154507 | 60 | 347 | 0.0 | 0.9 | 0.03 | 0.03 | 0.03 | 88 | 1006.6 |
| 20260506153007 | 60 | 347 | 0.0 | 0.9 | 0.02 | 0.02 | 0.02 | 86 | 1006.9 |
| 20260506151504 | 61 | 347 | 0.0 | 0.9 | 0.01 | 0.01 | 0.01 | 83 | 1007.3 |
| 20260506150003 | 61 | 348 | 0.0 | 1.7 | 0.00 | 0.00 | 0.00 | 80 | 1007.6 |
| 20260506144504 | 61 | 348 | 0.9 | 1.7 | 0.00 | 0.00 | 0.00 | 78 | 1007.7 |
| 20260506143001 | 61 | 5 | 0.0 | 1.7 | 0.00 | 0.00 | 0.00 | 79 | 1007.3 |
| 20260506141611 | 61 | 174 | 0.0 | 1.7 | 0.00 | 0.00 | 0.00 | 79 | 1007.1 |
| 20260506140059 | 61 | 239 | 1.7 | 3.5 | 0.00 | 0.00 | 0.00 | 78 | 1007.3 |
| 20260506134558 | 61 | 121 | 0.0 | 3.5 | 0.00 | 0.00 | 0.00 | 80 | 1007.2 |
| 20260506133105 | 60 | 132 | 0.9 | 2.6 | 0.00 | 0.00 | 0.00 | 82 | 1007.3 |
| 20260506131556 | 59 | 134 | 0.0 | 2.6 | 0.00 | 0.00 | 0.00 | 83 | 1007.4 |
| 20260506130054 | 59 | 94 | 0.9 | 2.6 | 0.00 | 0.00 | 0.00 | 83 | 1007.8 |
| 20260506124552 | 58 | 127 | 0.0 | 2.6 | 0.00 | 0.00 | 0.00 | 84 | 1008.0 |
| 20260506123052 | 58 | 58 | 0.9 | 3.5 | 0.00 | 0.00 | 0.00 | 84 | 1008.0 |
| 20260506121559 | 57 | 79 | 0.9 | 2.6 | 0.00 | 0.00 | 0.00 | 84 | 1007.4 |
| 20260506120115 | 57 | 79 | 0.9 | 2.6 | 0.00 | 0.00 | 0.00 | 85 | 1007.7 |
| 20260506114548 | 57 | 68 | 0.9 | 3.5 | 0.00 | 0.00 | 0.00 | 86 | 1007.8 |
| 20260506113046 | 57 | 105 | 0.9 | 2.6 | 0.00 | 0.00 | 0.00 | 85 | 1007.9 |
| 20260506111543 | 57 | 94 | 0.9 | 2.6 | 0.00 | 0.00 | 0.00 | 85 | 1007.7 |
| 20260506110043 | 56 | 126 | 0.9 | 2.6 | 0.00 | 0.00 | 0.00 | 87 | 1007.7 |
| 20260506104542 | 54 | 113 | 0.0 | 2.6 | 0.00 | 0.00 | 0.00 | 90 | 1007.8 |
| 20260506103041 | 53 | 96 | 0.9 | 3.5 | 0.00 | 0.00 | 0.00 | 93 | 1007.6 |